Preview of NWS' New Version of Forecast
This preview is not operational and should not be used for support decisions.

Regional Weather Roundup (RWR)

Issued by National Weather Service (NWS)

                            
000
ASUS43 KBIS 200310
RWRND 

NORTH DAKOTA REGIONAL WEATHER ROUNDUP
NATIONAL WEATHER SERVICE BISMARCK ND
1000 PM CDT FRI APR 19 2019

NOTE: "FAIR" INDICATES FEW OR NO CLOUDS BELOW 12,000 FEET WITH NO
SIGNIFICANT WEATHER AND/OR OBSTRUCTIONS TO VISIBILITY.


NDZ001>003-009>011-017-200400-
NORTHWEST NORTH DAKOTA
  
CITY           SKY/WX    TMP DP  RH WIND       PRES   REMARKS
WILLISTON      LGT RAIN  67  42  40 SW5       29.61S                  
MINOT          CLEAR     60  39  45 NW3       29.59S                  
MINOT AFB      PTCLDY    52  40  63 SW7       29.58S                  
$$
 
NDZ018>021-031>035-040>046-200400-
SOUTHWEST NORTH DAKOTA
  
CITY           SKY/WX    TMP DP  RH WIND       PRES   REMARKS
BISMARCK       CLEAR     63  43  48 VRB3      29.67S                  
DICKINSON      CLEAR     56  41  57 S6        29.68S                  
GARRISON         N/A     56  39  53 SW6       29.63S                  
HETTINGER ARPT PTCLDY    57  39  51 VRB3      29.74S                  
$$
 
NDZ004>008-012>016-024-026-027-054-200400-
NORTHEAST NORTH DAKOTA
  
CITY           SKY/WX    TMP DP  RH WIND       PRES   REMARKS
GRAND FORKS    CLEAR     53  43  68 S17       29.68S                  
GRND FRKS AFB  CLEAR     57  43  58 S18       29.69S                  
DEVILS LAKE    CLEAR     57  39  51 S17       29.62F                  
$$
 
NDZ022-023-025-028>030-036>039-047>053-200400-
SOUTHEAST NORTH DAKOTA
  
CITY           SKY/WX    TMP DP  RH WIND       PRES   REMARKS
FARGO          CLEAR     55  43  63 S15       29.75F                  
JAMESTOWN      PTCLDY    55  41  59 S14       29.69S                  
$$